Fort Lewis, WA
on Sunday, November 25, 2012

Sunday
Previous Day Next Day
Daily Summary
 ActualAverage (KOLM)Record (KOLM)
Temperature
Mean Temperature °F 41°F  
Max Temperature 44°F 48°F 59°F (1949)
Min Temperature 34°F 35°F 13°F (1993)
Degree Days
Heating Degree Days 26 24  
Month to date heating degree days 528  
Since 1 July heating degree days 1322  
Cooling Degree Days 0 0  
Month to date cooling degree days 0  
Year to date cooling degree days 106  
Moisture
Dew Point 39°F   
Average Humidity 96    
Maximum Humidity 100    
Minimum Humidity 76    
Precipitation
Precipitation 0.00 in 0.30 in 3.06 in (1998)
Month to date precipitation 7.13  
Year to date precipitation 41.04  
Wind
Wind Speed 2 mph   
Max Wind Speed 13 mph   
Max Gust Speed mph   
Visibility 4 miles   
Events Fog   

Key: T is trace of precipitation, MM is missing value
Source: NWS Daily Summary
Time(PST)TemperatureDew PointHumidity Pressure Visibility Wind DirectionWind SpeedGust SpeedPrecipitationEvents Conditions
12:03 AM 41.0°F 41.0°F 100% 30.26 in 0.8 miles Calm Calm - N/A   Overcast
12:18 AM 41.0°F 41.0°F 100% 30.26 in 0.8 miles Calm Calm - N/A   Overcast
12:23 AM 41.0°F 41.0°F 100% 30.27 in 0.8 miles Calm Calm - N/A   Overcast
12:28 AM 41.0°F 41.0°F 100% 30.26 in 1.0 miles Calm Calm - N/A   Overcast
12:38 AM 41.0°F 41.0°F 100% 30.26 in 0.8 miles East 1.2 mph - N/A   Overcast
12:43 AM 41.0°F 41.0°F 100% 30.26 in 0.8 miles Calm Calm - N/A   Overcast
12:58 AM 41.9°F 41.7°F 99% 30.28 in 0.8 miles South 2.3 mph - N/A   Overcast
1:08 AM 42.8°F 41.0°F 93% 30.26 in 1.0 miles SSE 1.2 mph - N/A   Overcast
1:18 AM 42.8°F 41.0°F 93% 30.26 in 1.5 miles ENE 1.2 mph - N/A   Overcast
1:23 AM 42.8°F 41.0°F 93% 30.26 in 1.5 miles East 1.2 mph - N/A   Overcast
1:28 AM 42.8°F 41.0°F 93% 30.26 in 1.2 miles Calm Calm - N/A   Overcast
1:33 AM 42.8°F 41.0°F 93% 30.26 in 2.0 miles Calm Calm - N/A   Overcast
1:38 AM 42.8°F 41.0°F 93% 30.26 in 2.5 miles Calm Calm - N/A   Overcast
1:48 AM 42.8°F 41.0°F 93% 30.27 in 3.0 miles Calm Calm - N/A   Overcast
1:53 AM 42.8°F 41.0°F 93% 30.27 in 3.0 miles Calm Calm - N/A   Overcast
1:58 AM 42.1°F 41.9°F 99% 30.29 in 1.8 miles NW 2.3 mph - N/A   Overcast
2:03 AM 42.8°F 41.0°F 93% 30.27 in 1.0 miles WNW 1.2 mph - N/A   Overcast
2:08 AM 42.8°F 41.0°F 93% 30.28 in 0.8 miles NW 2.3 mph - N/A   Overcast
2:13 AM 42.8°F 41.0°F 93% 30.28 in 0.8 miles WNW 1.2 mph - N/A   Overcast
2:28 AM 42.8°F 41.0°F 93% 30.28 in 0.8 miles Calm Calm - N/A   Overcast
2:33 AM 42.8°F 41.0°F 93% 30.28 in 0.8 miles Calm Calm - N/A   Overcast
2:38 AM 42.8°F 41.0°F 93% 30.28 in 1.0 miles Calm Calm - N/A   Overcast
2:43 AM 42.8°F 41.0°F 93% 30.28 in 2.0 miles Calm Calm - N/A   Overcast
2:48 AM 42.8°F 41.0°F 93% 30.28 in 5.0 miles Calm Calm - N/A   Overcast
2:49 AM 42.8°F 41.0°F 93% 30.28 in 5.0 miles Calm Calm - N/A   Overcast
2:58 AM 42.1°F 41.7°F 99% 30.30 in 5.0 miles NW 1.2 mph - N/A   Overcast
3:13 AM 42.8°F 41.0°F 93% 30.28 in 3.0 miles NNW 2.3 mph - N/A   Overcast
3:28 AM 42.8°F 41.0°F 93% 30.28 in 2.5 miles NW 2.3 mph - N/A   Overcast
3:33 AM 42.8°F 41.0°F 93% 30.28 in 2.5 miles NW 2.3 mph - N/A   Overcast
3:38 AM 42.8°F 41.0°F 93% 30.28 in 4.0 miles NNW 2.3 mph - N/A   Overcast
3:53 AM 41.0°F 41.0°F 100% 30.29 in 0.8 miles NW 3.5 mph - N/A   Overcast
3:58 AM 41.0°F 40.8°F 99% 30.30 in 0.5 miles NW 3.5 mph - N/A Fog Fog
4:03 AM 41.0°F 41.0°F 100% 30.28 in 0.2 miles WNW 2.3 mph - N/A Fog Fog
4:13 AM 41.0°F 41.0°F 100% 30.28 in 0.5 miles WNW 3.5 mph - N/A Fog Fog
4:33 AM 41.0°F 39.2°F 93% 30.29 in 0.2 miles WNW 2.3 mph - N/A Fog Fog
4:43 AM 41.0°F 39.2°F 93% 30.29 in 0.2 miles WNW 1.2 mph - N/A Fog Fog
4:58 AM 40.5°F 40.3°F 99% 30.31 in 0.2 miles Calm Calm - N/A Fog Fog
5:48 AM 39.2°F 39.2°F 100% 30.29 in 0.2 miles Calm Calm - N/A Fog Fog
5:53 AM 39.2°F 39.2°F 100% 30.29 in 0.5 miles Calm Calm - N/A Fog Fog
5:58 AM 39.2°F 39.2°F 100% 30.31 in 0.5 miles ENE 1.2 mph - N/A Fog Fog
6:03 AM 39.2°F 39.2°F 100% 30.29 in 0.2 miles ENE 2.3 mph - N/A Fog Fog
6:08 AM 39.2°F 39.2°F 100% 30.29 in 0.5 miles ENE 1.2 mph - N/A Fog Fog
6:13 AM 39.2°F 39.2°F 100% 30.29 in 0.5 miles Calm Calm - N/A Fog Fog
6:23 AM 39.2°F 39.2°F 100% 30.29 in 0.2 miles Calm Calm - N/A Fog Fog
6:28 AM 39.2°F 39.2°F 100% 30.29 in 0.2 miles NE 1.2 mph - N/A Fog Fog
6:58 AM 38.3°F 38.1°F 99% 30.32 in 0.2 miles East 1.2 mph - N/A Fog Fog
7:18 AM 37.4°F 37.4°F 100% 30.30 in 0.2 miles Calm Calm - N/A Fog Fog
7:23 AM 37.4°F 37.4°F 100% 30.30 in 0.2 miles Calm Calm - N/A Fog Fog
7:33 AM 37.4°F 37.4°F 100% 30.31 in 0.2 miles Calm Calm - N/A Fog Fog
7:58 AM 36.9°F 36.7°F 99% 30.33 in 0.2 miles Calm Calm - N/A Fog Fog
8:03 AM 37.4°F 37.4°F 100% 30.31 in 0.2 miles Calm Calm - N/A Fog Fog
8:58 AM 37.2°F 37.0°F 99% 30.34 in 0.2 miles Calm Calm - N/A Fog Fog
9:38 AM 37.4°F 37.4°F 100% 30.32 in 0.2 miles North 1.2 mph - N/A Fog Fog
9:48 AM 39.2°F 39.2°F 100% 30.32 in 0.2 miles North 2.3 mph - N/A Fog Fog
9:53 AM 39.2°F 39.2°F 100% 30.33 in 0.5 miles North 2.3 mph - N/A Fog Fog
9:58 AM 39.2°F 39.0°F 99% 30.35 in 0.2 miles Variable 3.5 mph - N/A Fog Fog
10:08 AM 39.2°F 39.2°F 100% 30.33 in 0.2 miles NE 4.6 mph - N/A Fog Fog
10:13 AM 39.2°F 39.2°F 100% 30.33 in 0.2 miles ENE 3.5 mph - N/A Fog Fog
10:23 AM 39.2°F 39.2°F 100% 30.33 in 0.2 miles NE 3.5 mph - N/A Fog Fog
10:28 AM 39.2°F 39.2°F 100% 30.33 in 0.2 miles NNW 4.6 mph - N/A Fog Fog
10:33 AM 39.2°F 39.2°F 100% 30.33 in 0.5 miles North 3.5 mph - N/A Fog Fog
10:38 AM 39.2°F 39.2°F 100% 30.33 in 2.0 miles North 4.6 mph - N/A   Overcast
10:43 AM 39.2°F 39.2°F 100% 30.33 in 5.0 miles NNW 3.5 mph - N/A   Overcast
10:58 AM 40.1°F 39.7°F 99% 30.35 in 10.0 miles Variable 2.3 mph - N/A   Overcast
11:03 AM 41.0°F 41.0°F 100% 30.33 in 10.0 miles Variable 2.3 mph - N/A   Overcast
11:13 AM 41.0°F 41.0°F 100% 30.32 in 10.0 miles Variable 5.8 mph - N/A   Overcast
11:23 AM 41.0°F 41.0°F 100% 30.32 in 10.0 miles Variable 2.3 mph - N/A   Overcast
11:33 AM 41.0°F 41.0°F 100% 30.32 in 10.0 miles North 3.5 mph - N/A   Overcast
11:58 AM 42.3°F 41.9°F 99% 30.33 in 10.0 miles North 4.6 mph - N/A   Mostly Cloudy
12:03 PM 42.8°F 42.8°F 100% 30.31 in 10.0 miles North 5.8 mph - N/A   Overcast
12:08 PM 42.8°F 41.0°F 93% 30.31 in 10.0 miles North 5.8 mph - N/A   Overcast
12:58 PM 44.4°F 39.6°F 83% 30.32 in 10.0 miles NNE 9.2 mph - N/A   Overcast
1:13 PM 44.6°F 39.2°F 81% 30.29 in 10.0 miles NNE 12.7 mph - N/A   Overcast
1:23 PM 44.6°F 39.2°F 81% 30.29 in 10.0 miles NNE 10.4 mph - N/A   Overcast
1:33 PM 44.6°F 39.2°F 81% 30.29 in 10.0 miles North 9.2 mph - N/A   Overcast
1:38 PM 44.6°F 39.2°F 81% 30.29 in 10.0 miles North 8.1 mph - N/A   Overcast
1:58 PM 43.9°F 37.6°F 78% 30.31 in 10.0 miles North 6.9 mph - N/A   Overcast
2:08 PM 44.6°F 37.4°F 76% 30.29 in 10.0 miles North 8.1 mph - N/A   Scattered Clouds
2:58 PM 44.4°F 38.1°F 79% 30.31 in 10.0 miles North 3.5 mph - N/A   Scattered Clouds
3:58 PM 43.5°F 37.9°F 81% 30.30 in 10.0 miles North 6.9 mph - N/A   Clear
4:58 PM 41.0°F 38.1°F 89% 30.29 in 10.0 miles NE 2.3 mph - N/A   Clear
5:58 PM 37.8°F 36.9°F 97% 30.28 in 10.0 miles ESE 1.2 mph - N/A   Clear
6:58 PM 36.7°F 36.5°F 99% 30.27 in 10.0 miles South 2.3 mph - N/A   Scattered Clouds
7:58 PM 35.4°F 35.2°F 99% 30.26 in 10.0 miles NE 2.3 mph - N/A   Clear
8:58 PM 34.7°F 34.5°F 99% 30.25 in 9.0 miles Calm Calm - N/A   Clear
9:58 PM 34.2°F 34.0°F 99% 30.24 in 10.0 miles East 2.3 mph - N/A   Clear
10:58 PM 35.2°F 35.1°F 99% 30.22 in 10.0 miles NNE 2.3 mph - N/A   Scattered Clouds
11:03 PM 35.6°F 35.6°F 100% 30.20 in 10.0 miles North 1.2 mph - N/A   Mostly Cloudy
11:53 PM 35.6°F 35.6°F 100% 30.20 in 10.0 miles Calm Calm - N/A   Overcast
11:58 PM 36.3°F 35.8°F 98% 30.22 in 10.0 miles Calm Calm - N/A   Overcast
Moon Phase
Nov. 25 Nov. 28 Dec. 06 Dec. 13 Dec. 20
Sunrise:07:28 AM (PST) Moon Rise:02:52 PM (PST)
Sunset:04:25 PM (PST) Moon Set:04:40 AM (PST)

Copyright © 2014 The Weather Underground, Inc.